Location: Newark
(60.6561°N, 46.5772°E)
Time: 12:25:51
(UTC+00:00)

Tiros 1 - Pass Details

Date: 22 October 2019
Orbit: 630 x 664 km, 48.4° (Epoch: 21 November)

Event Time Altitude Azimuth Distance (km) Brightness Sun altitude
Exits shadow 23:50:57 12° 135° (SE) 1,951 9.7 -29.3°
Drops below altitude 10° 23:51:29 10° 130° (SE) 2,083 9.9 -29.3°
Sets 23:54:26 0° 112° (ESE) 2,997 11.0 -29.0°
